Regional Weather Roundup
Issued by NWS

Home | Current Version | Previous Version | Text Only | Print | Product List | Glossary Off
Versions: 1 2 3 4 5 6 7 8 9 10 11 12 13 14 15 16 17 18 19 20 21 22 23 24 25 26 27 28 29 30 31 32 33 34 35 36 37 38 39 40 41 42 43 44 45 46 47 48 49 50

000
ASUS45 KBOI 011110
RWRID
WEATHER ROUNDUP FOR IDAHO
NATIONAL WEATHER SERVICE BOISE ID
500 AM MDT MON SEP 01 2014

NOTE: "FAIR" INDICATES FEW OR NO CLOUDS BELOW 12000 FEET
WITH NO SIGNIFICANT WEATHER AND/OR OBSTRUCTIONS TO VISIBILITY

IDZ012-014-011200-
SOUTHWEST IDAHO


CITY           SKY/WX    TMP DP  RH WIND       PRES   REMARKS
BOISE          CLEAR     53  43  68 CALM      30.04R
CALDWELL       CLEAR     54  36  50 W5        30.05R
MOUNTAIN HOME  CLEAR     50  42  76 NW7       30.02S
$$

IDZ016-017-011200-
SOUTHCENTRAL IDAHO


CITY           SKY/WX    TMP DP  RH WIND       PRES   REMARKS
BURLEY         CLEAR     47  40  76 W7        30.03R
JEROME         CLEAR     49  39  68 SE3       30.04S
TWIN FALLS     CLEAR     53  41  63 S12       30.04S
$$

IDZ019>023-011200-
SOUTHEAST IDAHO


CITY           SKY/WX    TMP DP  RH WIND       PRES   REMARKS
IDAHO FALLS    PTCLDY    48  40  73 SW12      30.02R
POCATELLO      CLEAR     54  37  52 SW14      30.04R
REXBURG        PTCLDY    49  39  68 S7        30.02R
$$

IDZ006-010-011-018-031-032-011200-
CENTRAL IDAHO MOUNTAINS


CITY           SKY/WX    TMP DP  RH WIND       PRES   REMARKS
MCCALL         CLEAR     37  32  82 CALM      30.08R
HAILEY         CLEAR     45  34  65 NW7       30.07S
STANLEY          N/A     29  27  92 S3        30.14R
SALMON         MOCLDY    50  41  71 CALM      30.05R
CHALLIS        CLEAR     47  37  68 S3        30.06R
$$

IDZ002-004-006-007-026-011200-
NORTHERN IDAHO


CITY           SKY/WX    TMP DP  RH WIND       PRES   REMARKS
LEWISTON       CLOUDY    61  42  49 CALM      30.02
LOWELL           N/A     51  47  86 NW3       30.07S
COEUR D`ALENE  PTCLDY    52  43  71 SE3       29.99S
MULLAN PASS    CLOUDY    42  36  79 SW6       30.07S
$$


USA.gov is the U.S. government's official web portal to all federal, state and local government web resources and services.